Simultaneous Nadir Overpasses (SNOs) Predictions

Prediction of SNOs between AQUA and METOP-B Satellite Orbit:

Table of predicted SNOs for the next 14.0 days since TLE Epoch: 4/6/2024
Index Date (AQUA) Time (AQUA) Lat,Lon (AQUA) SZA (AQUA ) Date (METOP-B) Time (METOP-B) Lat,Lon (METOP-B) SZA (METOP-B ) Distance(km) Time Diff (sec)
1 04/08/2024 06:20:39 -75.52, -98.05 111.95 04/08/2024 06:19:56 -75.54, -98.11 111.92 2.89 43
2 04/08/2024 07:10:04 75.61, 69.32 68.14 04/08/2024 07:10:35 75.59, 69.39 68.12 2.80 31
3 04/10/2024 22:31:59 -75.54, 19.09 112.92 04/10/2024 22:31:34 -75.56, 19.02 112.90 2.48 25
4 04/10/2024 23:21:23 75.59,-173.40 67.12 04/10/2024 23:22:13 75.61,-173.49 67.14 3.06 50
5 04/13/2024 13:53:48 75.18, -30.32 65.75 04/13/2024 13:52:40 75.11, -32.55 65.72 63.93 68
6 04/13/2024 14:43:18 -75.57, 136.23 113.87 04/13/2024 14:43:12 -75.57, 136.13 113.86 2.85 6
7 04/13/2024 15:32:42 75.62, -56.27 66.18 04/13/2024 15:33:51 75.62, -56.39 66.17 3.38 69
8 04/16/2024 06:05:13 75.55, 85.83 65.18 04/16/2024 06:04:09 75.55, 85.80 65.17 1.40 64
9 04/16/2024 06:54:36 -75.59,-106.62 114.80 04/16/2024 06:54:49 -75.62,-106.64 114.77 2.89 13
10 04/16/2024 07:44:12 76.23, 59.04 65.87 04/16/2024 07:45:16 76.22, 62.68 65.81 96.20 64
11 04/18/2024 22:16:29 75.58,-157.02 64.27 04/18/2024 22:15:45 75.59,-157.00 64.28 0.80 44
12 04/18/2024 23:05:52 -75.62, 10.53 115.71 04/18/2024 23:06:26 -75.62, 10.42 115.71 3.03 34



Historial Predications of SNOs between AQUA and METOP-B
